Location: Cedar Brake
(32.2526°N, 97.8459°W)
Time: 20:35:41
(UTC+00:00)

Cosmos 1766 Rocket - Pass Details

Date: 22 April 2026
Orbit: 597 x 626 km, 82.5° (Epoch: 21 May)

Event Time Altitude Azimuth Distance (km) Brightness Sun altitude
Rises 09:23:04 0° 1° (N) 2,863 7.5 -29.2°
Reaches altitude 10° 09:25:23 10° 8° (N) 1,952 6.7 -28.8°
Enters shadow 09:29:28 44° 79° (E) 830 4.5 -28.2°
